Date String (YYYY-MM-DD hh:mm:ss) UTC,Instrument flags,absolute air pressure of the measurement (hPa),sample flow rate (lpm),inlet stack bypass flow (lpm),air temperature of the measurement (°C),ambient temperature measured by the external sensor (°C),aerosol sample conditioner tube jacket temperature (°C),OPC LED temperature (°C),internal box temperature (°C),relative humidity of the measurement (%),span deviation,mass concentration of particles derived from Lorenz-Mie calculation of OPC scattering (μg/m³),mass concentration of particles derived from Lorenz-Mie calculation of OPC scattering (μg/m³),mass concentration of particles derived from Lorenz-Mie calculation of OPC scattering (μg/m³)
DateTimeUTC,F1_M11,P_M11,Q1_M11,Q2_M11,T1_M11,T2_M11,T3_M11,T4_M11,T5_M11,U1_M11,ZSPAN_M11,X0_M11,X2_M11,X1_M11
2023-07-17 05:00:00,SystemResetWarning,0833.4,5.00,000.00,029.0,027.1,000.0,037.5,030.7,28.0,-000.3,0016.47,0009.54,0008.42
2023-07-17 05:01:00,SystemResetWarning,0833.4,5.01,000.00,029.1,027.4,000.0,037.5,030.7,27.9,-000.5,0017.28,0009.56,0008.42
2023-07-17 05:02:00,SystemResetWarning,0833.4,4.99,000.00,029.1,027.6,000.0,037.5,030.8,27.9,-000.3,0018.38,0009.61,0008.42
2023-07-17 05:03:00,SystemResetWarning,0833.4,4.99,000.00,029.2,027.8,000.0,037.5,030.8,27.8,-000.3,0018.67,0009.65,0008.42
2023-07-17 05:04:00,SystemResetWarning,0833.4,5.01,000.00,029.2,028.0,000.0,037.6,030.9,27.6,-000.4,0018.89,0009.69,0008.43
2023-07-17 05:05:00,SystemResetWarning,0833.4,5.00,000.00,029.2,027.7,000.0,037.5,030.9,27.5,-000.6,0018.82,0009.66,0008.43
2023-07-17 05:06:00,SystemResetWarning,0833.3,4.99,000.00,029.2,025.9,000.0,037.4,030.7,27.4,-000.6,0019.26,0009.58,0008.41
2023-07-17 05:07:00,SystemResetWarning,0833.3,5.01,000.00,029.1,025.3,000.0,037.3,030.5,27.4,-000.4,0020.32,0009.62,0008.40
2023-07-17 05:08:00,SystemResetWarning,0833.3,5.01,000.00,029.0,025.5,000.0,037.3,030.4,27.3,-000.6,0021.13,0009.63,0008.38
2023-07-17 05:09:00,SystemResetWarning,0833.3,4.99,000.00,029.0,025.9,000.0,037.4,030.4,26.8,-000.7,0021.44,0009.59,0008.35
2023-07-17 05:10:00,SystemResetWarning,0833.3,4.99,000.00,029.0,026.3,000.0,037.4,030.4,26.7,-000.6,0021.39,0009.55,0008.33
2023-07-17 05:11:00,SystemResetWarning,0833.4,5.01,000.00,029.0,026.7,000.0,037.4,030.5,26.6,-000.7,0021.26,0009.52,0008.33
2023-07-17 05:12:00,SystemResetWarning,0833.4,5.00,000.00,029.0,027.0,000.0,037.5,030.6,26.0,-000.5,0020.99,0009.54,0008.33
2023-07-17 05:13:00,SystemResetWarning,0833.4,5.01,000.00,029.1,027.3,000.0,037.5,030.7,25.9,-000.4,0020.60,0009.50,0008.31
2023-07-17 05:14:00,SystemResetWarning,0833.4,5.00,000.00,029.1,027.5,000.0,037.5,030.8,26.4,-000.2,0019.99,0009.45,0008.31
2023-07-17 05:15:00,SystemResetWarning,0833.4,5.00,000.00,029.1,027.7,000.0,037.5,030.8,26.7,-000.1,0019.49,0009.38,0008.30
2023-07-17 05:16:00,SystemResetWarning,0833.4,5.00,000.00,029.2,027.9,000.0,037.5,030.9,26.6,0000.4,0019.74,0009.42,0008.30
2023-07-17 05:17:00,SystemResetWarning,0833.4,4.99,000.00,029.2,027.9,000.0,037.6,030.9,25.7,0000.6,0019.46,0009.46,0008.29
2023-07-17 05:18:00,SystemResetWarning,0833.4,5.00,000.00,029.2,026.4,000.0,037.5,030.8,26.2,0000.3,0019.54,0009.38,0008.26
2023-07-17 05:19:00,SystemResetWarning,0833.4,5.00,000.00,029.1,025.4,000.0,037.4,030.6,26.1,0000.1,0019.52,0009.31,0008.27
2023-07-17 05:20:00,SystemResetWarning,0833.4,5.01,000.00,029.1,025.4,000.0,037.3,030.4,26.0,0000.4,0019.49,0009.30,0008.25
2023-07-17 05:21:00,SystemResetWarning,0833.4,5.01,000.00,029.0,025.8,000.0,037.4,030.3,26.3,0000.7,0020.28,0009.36,0008.22
2023-07-17 05:22:00,SystemResetWarning,0833.4,5.00,000.00,029.0,026.2,000.0,037.4,030.4,26.5,0000.8,0020.42,0009.36,0008.16
2023-07-17 05:23:00,SystemResetWarning,0833.4,5.00,000.00,029.0,026.6,000.0,037.4,030.5,25.9,0000.6,0019.66,0009.26,0008.08
2023-07-17 05:24:00,SystemResetWarning,0833.4,5.00,000.00,029.0,026.9,000.0,037.4,030.6,26.1,0000.5,0019.01,0009.19,0008.03
2023-07-17 05:25:00,SystemResetWarning,0833.4,4.99,000.00,029.0,027.2,000.0,037.5,030.7,26.1,-000.0,0018.97,0009.17,0008.00
2023-07-17 05:26:00,SystemResetWarning,0833.4,5.00,000.00,029.1,027.4,000.0,037.5,030.7,25.5,-000.1,0019.78,0009.18,0007.97
2023-07-17 05:27:00,SystemResetWarning,0833.4,5.00,000.00,029.1,027.7,000.0,037.5,030.8,25.5,-000.5,0019.99,0009.12,0007.95
2023-07-17 05:28:00,SystemResetWarning,0833.4,5.00,000.00,029.2,027.8,000.0,037.5,030.8,25.5,-000.7,0019.45,0008.99,0007.87
2023-07-17 05:29:00,SystemResetWarning,0833.4,5.00,000.00,029.2,028.0,000.0,037.5,030.9,25.4,-000.6,0018.24,0008.95,0007.84
2023-07-17 05:30:00,SystemResetWarning,0833.4,4.99,000.00,029.2,028.1,000.0,037.6,030.9,25.3,-000.4,0017.48,0008.88,0007.78
2023-07-17 05:31:00,SystemResetWarning,0833.4,4.98,000.00,029.3,027.1,000.0,037.5,030.9,25.0,-000.4,0017.85,0008.79,0007.73
2023-07-17 05:32:00,SystemResetWarning,0833.4,5.01,000.00,029.2,025.5,000.0,037.4,030.6,25.1,-000.4,0016.96,0008.72,0007.73
2023-07-17 05:33:00,SystemResetWarning,0833.3,5.01,000.00,029.1,025.3,000.0,037.4,030.4,25.2,-000.8,0016.75,0008.66,0007.73
2023-07-17 05:34:00,SystemResetWarning,0833.4,5.00,000.00,029.0,025.6,000.0,037.4,030.3,25.3,-000.7,0017.29,0008.63,0007.73
2023-07-17 05:35:00,SystemResetWarning,0833.4,4.99,000.00,029.0,026.0,000.0,037.4,030.4,25.5,-000.6,0017.38,0008.67,0007.74
2023-07-17 05:36:00,SystemResetWarning,0833.4,4.99,000.00,029.0,026.4,000.0,037.5,030.5,25.5,-000.4,0018.11,0008.65,0007.73
2023-07-17 05:37:00,SystemResetWarning,0833.4,5.01,000.00,029.0,026.8,000.0,037.5,030.5,25.3,-000.5,0017.58,0008.56,0007.65
2023-07-17 05:38:00,SystemResetWarning,0833.4,5.00,000.00,029.1,027.1,000.0,037.5,030.6,25.1,-000.6,0016.59,0008.46,0007.57
2023-07-17 05:39:00,SystemResetWarning,0833.4,4.99,000.00,029.1,027.3,000.0,037.5,030.7,25.0,-000.7,0016.97,0008.45,0007.55
2023-07-17 05:40:00,SystemResetWarning,0833.4,4.99,000.00,029.1,027.6,000.0,037.5,030.8,25.0,-000.2,0017.18,0008.39,0007.51
2023-07-17 05:41:00,SystemResetWarning,0833.4,5.00,000.00,029.1,027.7,000.0,037.5,030.8,25.1,-000.1,0016.96,0008.33,0007.49
2023-07-17 05:42:00,SystemResetWarning,0833.4,5.01,000.00,029.2,027.9,000.0,037.6,030.9,24.9,-000.0,0015.73,0008.33,0007.46
2023-07-17 05:43:00,SystemResetWarning,0833.4,5.01,000.00,029.2,028.0,000.0,037.6,030.9,24.8,0000.3,0015.21,0008.31,0007.42
2023-07-17 05:44:00,SystemResetWarning,0833.4,4.99,000.00,029.3,028.1,000.0,037.6,030.9,24.7,0000.6,0015.32,0008.21,0007.38
2023-07-17 05:45:00,SystemResetWarning,0833.4,4.99,000.00,029.3,026.7,000.0,037.5,030.8,24.6,0000.6,0015.12,0008.21,0007.36
2023-07-17 05:46:00,SystemResetWarning,0833.4,5.00,000.00,029.2,025.3,000.0,037.4,030.6,24.8,0000.5,0015.55,0008.18,0007.35
2023-07-17 05:47:00,SystemResetWarning,0833.3,5.01,000.00,029.1,025.2,000.0,037.4,030.4,24.8,0000.3,0014.76,0008.12,0007.32
2023-07-17 05:48:00,SystemResetWarning,0833.3,4.99,000.00,029.0,025.5,000.0,037.4,030.3,24.7,0000.6,0014.46,0008.09,0007.31
2023-07-17 05:49:00,SystemResetWarning,0833.3,5.00,000.00,029.0,026.0,000.0,037.4,030.4,24.5,0000.7,0015.00,0008.09,0007.31
2023-07-17 05:50:00,SystemResetWarning,0833.3,5.01,000.00,029.0,026.4,000.0,037.5,030.5,24.4,0000.7,0014.86,0008.05,0007.29
2023-07-17 05:51:00,SystemResetWarning,0833.3,5.00,000.00,029.0,026.7,000.0,037.5,030.5,24.3,0000.4,0014.60,0008.02,0007.26
2023-07-17 05:52:00,SystemResetWarning,0833.4,5.00,000.00,029.0,027.0,000.0,037.5,030.6,24.3,0000.3,0015.75,0008.04,0007.24
2023-07-17 05:53:00,SystemResetWarning,0833.3,5.00,000.00,029.1,027.3,000.0,037.5,030.7,24.2,0000.1,0016.04,0007.99,0007.23
2023-07-17 05:54:00,SystemResetWarning,0833.3,4.99,000.00,029.1,027.5,000.0,037.5,030.7,24.1,-000.6,0016.48,0007.97,0007.20
2023-07-17 05:55:00,SystemResetWarning,0833.4,4.99,000.00,029.1,027.7,000.0,037.5,030.8,24.1,-000.8,0016.66,0007.95,0007.17
2023-07-17 05:56:00,SystemResetWarning,0833.4,5.00,000.00,029.2,027.9,000.0,037.6,030.8,24.1,-001.2,0016.28,0007.92,0007.17
2023-07-17 05:57:00,SystemResetWarning,0833.4,5.00,000.00,029.2,028.0,000.0,037.6,030.9,24.2,-000.9,0015.82,0007.89,0007.15
2023-07-17 05:58:00,SystemResetWarning,0833.4,5.00,000.00,029.3,028.1,000.0,037.6,030.9,24.1,-000.8,0015.94,0007.90,0007.14
2023-07-17 05:59:00,SystemResetWarning,0833.4,5.00,000.00,029.3,028.2,000.0,037.6,031.0,23.6,-000.9,0015.75,0007.85,0007.11
